Satellite: ASTRA 1B
Catalog number: 21139
Epoch time:      103037.00000000
Element set:     159 
Inclination:        0.0122 deg
RA of node:       319.8851 deg
Eccentricity:    0.0002995
Arg of perigee:    65.1991 deg
Mean anomaly:     129.8295 deg
Mean motion:    1.00273184 rev/day
Decay rate:    1.2100E-006 rev/day^2
Epoch rev:            3206
Checksum:              233

Satellite: METEOSAT 5 (MO
Catalog number: 21140
Epoch time:      103040.81509400
Element set:     710 
Inclination:        5.6099 deg
RA of node:        70.0073 deg
Eccentricity:    0.0001625
Arg of perigee:   155.0768 deg
Mean anomaly:     270.5978 deg
Mean motion:    1.00271950 rev/day
Decay rate:    2.7999E-007 rev/day^2
Epoch rev:            4596
Checksum:              288

Satellite: NOAA 12
Catalog number: 21263
Epoch time:      103041.12852001
Element set:     963 
Inclination:       98.6250 deg
RA of node:        30.8988 deg
Eccentricity:    0.0013710
Arg of perigee:    48.3017 deg
Mean anomaly:     311.9333 deg
Mean motion:   14.25074316 rev/day
Decay rate:    3.2600E-006 rev/day^2
Epoch rev:           61001
Checksum:              252

Satellite: OSCAR 22 (UoSA
Catalog number: 21575
Epoch time:      103040.53896410
Element set:     721 
Inclination:       98.1400 deg
RA of node:        33.1162 deg
Eccentricity:    0.0007658
Arg of perigee:   152.9541 deg
Mean anomaly:     207.2048 deg
Mean motion:   14.39147058 rev/day
Decay rate:    3.1800E-006 rev/day^2
Epoch rev:           60698
Checksum:              294

Satellite: METEOR 3-5
Catalog number: 21655
Epoch time:      103041.54524583
Element set:     498 
Inclination:       82.5543 deg
RA of node:        44.5280 deg
Eccentricity:    0.0012415
Arg of perigee:   215.8451 deg
Mean anomaly:     144.1839 deg
Mean motion:   13.16980377 rev/day
Decay rate:    5.1000E-007 rev/day^2
Epoch rev:           55242
Checksum:              296

Satellite: UARS
Catalog number: 21701
Epoch time:      103041.44759780
Element set:     821 
Inclination:       56.9808 deg
RA of node:        64.9225 deg
Eccentricity:    0.0004807
Arg of perigee:   113.5004 deg
Mean anomaly:     246.6550 deg
Mean motion:   15.02840232 rev/day
Decay rate:    8.7799E-006 rev/day^2
Epoch rev:           62449
Checksum:              306

Satellite: EUTELSAT 2-F3
Catalog number: 21803
Epoch time:      103040.18650464
Element set:     520 
Inclination:        2.5751 deg
RA of node:        89.2283 deg
Eccentricity:    0.0002532
Arg of perigee:   256.0076 deg
Mean anomaly:     242.2115 deg
Mean motion:    1.00275366 rev/day
Decay rate:    1.3600E-006 rev/day^2
Epoch rev:            3690
Checksum:              248

Satellite: INMARSAT 2-F3
Catalog number: 21814
Epoch time:      103040.61165547
Element set:     614 
Inclination:        1.7281 deg
RA of node:        57.9063 deg
Eccentricity:    0.0002567
Arg of perigee:   267.2710 deg
Mean anomaly:     252.2641 deg
Mean motion:    1.00274458 rev/day
Decay rate:    1.2100E-006 rev/day^2
Epoch rev:            4080
Checksum:              253

Satellite: INMARSAT 2-F4
Catalog number: 21940
Epoch time:      103033.80414906
Element set:     568 
Inclination:        2.3665 deg
RA of node:        19.1794 deg
Eccentricity:    0.0001463
Arg of perigee:   307.8659 deg
Mean anomaly:     203.9708 deg
Mean motion:    1.00267475 rev/day
Decay rate:   -3.6100E-006 rev/day^2
Epoch rev:            3952
Checksum:              294

Satellite: EUTELSAT 2-F4
Catalog number: 22028
Epoch time:      103040.17505788
Element set:     328 
Inclination:        1.6940 deg
RA of node:        92.6931 deg
Eccentricity:    0.0005890
Arg of perigee:   220.1582 deg
Mean anomaly:     236.7035 deg
Mean motion:    1.00271741 rev/day
Decay rate:   -9.0999E-007 rev/day^2
Epoch rev:            3168
Checksum:              410

Satellite: OSCAR 23 (KITS
Catalog number: 22077
Epoch time:      103040.23840020
Element set:     153 
Inclination:       66.0868 deg
RA of node:       145.2674 deg
Eccentricity:    0.0015448
Arg of perigee:   276.7072 deg
Mean anomaly:      83.2191 deg
Mean motion:   12.86408059 rev/day
Decay rate:   -3.7000E-007 rev/day^2
Epoch rev:           49310
Checksum:              285

Satellite: ASTRA 1C
Catalog number: 22653
Epoch time:      103037.00000000
Element set:     785 
Inclination:        0.0122 deg
RA of node:       319.8851 deg
Eccentricity:    0.0002995
Arg of perigee:    65.1991 deg
Mean anomaly:     116.0233 deg
Mean motion:    1.00273184 rev/day
Decay rate:    3.7000E-007 rev/day^2
Epoch rev:            3076
Checksum:              232

Satellite: METEOR 2-21
Catalog number: 22782
Epoch time:      103041.43482418
Element set:     514 
Inclination:       82.5465 deg
RA of node:       221.3441 deg
Eccentricity:    0.0022740
Arg of perigee:    12.4685 deg
Mean anomaly:     347.7051 deg
Mean motion:   13.83532033 rev/day
Decay rate:    1.4500E-006 rev/day^2
Epoch rev:           47696
Checksum:              281

Satellite: KITSAT B
Catalog number: 22825
Epoch time:      103040.85972933
Element set:     482 
Inclination:       98.2755 deg
RA of node:        70.9998 deg
Eccentricity:    0.0007669
Arg of perigee:   289.1708 deg
Mean anomaly:      70.8644 deg
Mean motion:   14.28939498 rev/day
Decay rate:    1.3200E-006 rev/day^2
Epoch rev:           48863
Checksum:              470

Satellite: POSAT 1
Catalog number: 22826
Epoch time:      103041.17140771
Element set:     305 
Inclination:       98.2759 deg
RA of node:        72.4073 deg
Eccentricity:    0.0008381
Arg of perigee:   289.0360 deg
Mean anomaly:      70.9911 deg
Mean motion:   14.29162487 rev/day
Decay rate:    1.5699E-006 rev/day^2
Epoch rev:           48872
Checksum:              323

Satellite: ITAMSAT
Catalog number: 22828
Epoch time:      103041.50370842
Element set:     422 
Inclination:       98.2731 deg
RA of node:        72.9873 deg
Eccentricity:    0.0009101
Arg of perigee:   263.3529 deg
Mean anomaly:      96.6625 deg
Mean motion:   14.29505159 rev/day
Decay rate:    1.3699E-006 rev/day^2
Epoch rev:           45697
Checksum:              325

Satellite: EYESAT A
Catalog number: 22829
Epoch time:      103040.60459831
Element set:     446 
Inclination:       98.2723 deg
RA of node:        72.7327 deg
Eccentricity:    0.0008924
Arg of perigee:   265.5150 deg
Mean anomaly:      94.5011 deg
Mean motion:   14.29763479 rev/day
Decay rate:    2.3200E-006 rev/day^2
Epoch rev:           48877
Checksum:              314

Satellite: METEOSAT 6
Catalog number: 22912
Epoch time:      103040.18116899
Element set:     672 
Inclination:        2.6546 deg
RA of node:        82.4531 deg
Eccentricity:    0.0001310
Arg of perigee:   198.7470 deg
Mean anomaly:     292.5214 deg
Mean motion:    1.00279715 rev/day
Decay rate:    7.3000E-007 rev/day^2
Epoch rev:            3220
Checksum:              264

Satellite: GOES 8
Catalog number: 23051
Epoch time:      103041.48580315
Element set:     599 
Inclination:        0.2775 deg
RA of node:       103.3427 deg
Eccentricity:    0.0000793
Arg of perigee:   292.0868 deg
Mean anomaly:     204.6219 deg
Mean motion:    1.00279841 rev/day
Decay rate:   -2.4099E-006 rev/day^2
Epoch rev:            3972
Checksum:              297

Satellite: ASTRA 1D
Catalog number: 23331
Epoch time:      103037.01194446
Element set:     813 
Inclination:        0.0520 deg
RA of node:       224.9646 deg
Eccentricity:    0.0003223
Arg of perigee:    53.2445 deg
Mean anomaly:     245.9967 deg
Mean motion:    1.00274944 rev/day
Decay rate:    1.4099E-006 rev/day^2
Epoch rev:            3074
Checksum:              265

Satellite: RADIO ROSTO
Catalog number: 23439
Epoch time:      103038.20708573
Element set:     680 
Inclination:       64.8156 deg
RA of node:        59.8551 deg
Eccentricity:    0.0147092
Arg of perigee:   117.4218 deg
Mean anomaly:     244.1751 deg
Mean motion:   11.27547676 rev/day
Decay rate:   -3.4000E-007 rev/day^2
Epoch rev:           33431
Checksum:              297

Satellite: NOAA 14
Catalog number: 23455
Epoch time:      103041.12026627
Element set:     517 
Inclination:       99.1873 deg
RA of node:        59.4656 deg
Eccentricity:    0.0008611
Arg of perigee:   252.3505 deg
Mean anomaly:     107.6725 deg
Mean motion:   14.13293455 rev/day
Decay rate:    1.1500E-006 rev/day^2
Epoch rev:           41828
Checksum:              292

Satellite: HIMAWARI 5 (GM
Catalog number: 23522
Epoch time:      103038.62260777
Element set:     88 
Inclination:        1.7497 deg
RA of node:        83.8464 deg
Eccentricity:    0.0000375
Arg of perigee:    22.3751 deg
Mean anomaly:      34.9277 deg
Mean motion:    1.00260935 rev/day
Decay rate:   -2.8100E-006 rev/day^2
Epoch rev:            2878
Checksum:              298

Satellite: HOT BIRD 1
Catalog number: 23537
Epoch time:      103013.80550721
Element set:     533 
Inclination:        0.0070 deg
RA of node:       236.2796 deg
Eccentricity:    0.0008090
Arg of perigee:    86.9786 deg
Mean anomaly:      92.5958 deg
Mean motion:    1.00275871 rev/day
Decay rate:    1.0700E-006 rev/day^2
Epoch rev:            2861
Checksum:              279

Satellite: GOES 9
Catalog number: 23581
Epoch time:      103038.51389009
Element set:     506 
Inclination:        0.2984 deg
RA of node:       277.9200 deg
Eccentricity:    0.0012483
Arg of perigee:   254.1862 deg
Mean anomaly:       2.0839 deg
Mean motion:    1.00052947 rev/day
Decay rate:    1.3699E-006 rev/day^2
Epoch rev:            2825
Checksum:              293

